Regional Weather Roundup
Issued by NWS Cleveland, OH

Home | Current Version | Previous Version | Graphics & Text | Print | Product List | Glossary Off
Versions: 1 2 3 4 5 6 7 8 9 10 11 12 13 14 15 16 17 18 19 20 21 22 23 24 25 26 27 28 29 30 31 32 33 34 35 36 37 38 39 40 41 42 43 44 45 46 47 48 49 50

000
ASUS41 KCLE 311212
RWRCLE
OHIO REGIONAL WEATHER ROUNDUP
NATIONAL WEATHER SERVICE WILMINGTON, OH
800 AM EDT TUE MAY 31 2016

NOTE: "FAIR" INDICATES FEW OR NO CLOUDS BELOW 12,000 FEET WITH NO
SIGNIFICANT WEATHER AND/OR OBSTRUCTIONS TO VISIBILITY.

OHZ001>008-015>018-024>027-034-035-043-044-311300-
   NORTHWEST OHIO

CITY           SKY/WX    TMP DP  RH WIND       PRES   REMARKS
DEFIANCE       FAIR      67  54  63 NE6       30.03R
FINDLAY        FAIR      71  53  52 NE6       30.01R
TOLEDO EXPRESS FAIR      65  53  65 N3        30.02R
TOLEDO EXEC    FAIR      68  55  63 N6        30.02R
LIMA           FAIR      67  54  63 NE5       30.02R
$$

OHZ009>014-019>023-028>033-038-089-311300-
   NORTHEAST OHIO

CITY           SKY/WX    TMP DP  RH WIND       PRES   REMARKS
CLE-HOPKINS    PTSUNNY   69  58  67 SE3       30.02R
CLE-LAKEFRONT  FAIR      72  58  61 E5        30.00R
CUY CO. ARPT   MOSUNNY   70  63  78 CALM      30.03R
LORAIN-ELYRIA  FAIR      66  59  78 CALM      30.01R
ASHTABULA      FAIR      64  59  83 CALM      30.03R
AKRON-CANTON   FAIR      69  56  62 CALM      30.02R
WOOSTER        FAIR      66  58  75 CALM      30.02R
MANSFIELD      FAIR      66  60  81 NW3       30.02R
YOUNGSTOWN     PTSUNNY   69  57  65 CALM      30.02S
$$

OHZ042-051>053-060>062-070>072-077>081-311300-
  SOUTHWEST OHIO

CITY           SKY/WX    TMP DP  RH WIND       PRES   REMARKS
CINC-COVINGTON PTSUNNY   68  61  78 CALM      30.01S
CINC-LUNKEN    FAIR      64  64 100 SW3       30.01S
HAMILTON       FAIR      67  63  87 CALM      30.01S
DAYTON         PTSUNNY   67  60  78 NW3       30.02R
WRIGHT-PAT AFB SUNNY     66  64  91 CALM      30.01R
DAYTON GENERAL FAIR      72  60  66 CALM      30.01R
WILMINGTON     FAIR      71  62  73 CALM      30.01R
$$

OHZ036-037-039>041-045>050-054>059-063>069-073>076-082>088-311300-
  CENTRAL AND SOUTHEAST OHIO

CITY           SKY/WX    TMP DP  RH WIND       PRES   REMARKS
COLUMBUS       PTSUNNY   67  61  81 S3        30.01R
OSU AIRPORT    FAIR      67  62  84 CALM      30.01R
BOLTON FIELD   SUNNY    N/A N/A N/A CALM      30.02R
RICKENBACK AFB FAIR      65  62  87 SW5       30.01R
NEWARK         FAIR      65  59  81 CALM      30.01R
MARION         FAIR      66  59  78 CALM      30.02R
LANCASTER      FAIR      66  61  84 S3        30.01R
ZANESVILLE     FAIR      65  60  84 CALM      30.01S
NEW PHILLY     FAIR      66  59  78 CALM      30.02R
$$




USA.gov is the U.S. government's official web portal to all federal, state and local government web resources and services.